Location: Little Baddow
(51.7333°N, 0.5667°E)
Time: 10:52:27
(UTC+00:00)

Cosmos 44 Rocket - Pass Details

Date: 08 November 2025
Orbit: 637 x 741 km, 65.1° (Epoch: 09 December)

Event Time Altitude Azimuth Distance (km) Brightness Sun altitude
Exits shadow 04:05:05 73° 105° (ESE) 772 3.5 -27.8°
Drops below altitude 10° 04:09:48 10° 135° (SE) 2,245 6.3 -27.1°
Sets 04:12:11 0° 137° (SE) 3,168 7.2 -26.8°
